FW1302 Weather Reports


Display with metric or nautical units.
time (UTC)temp
F
wind
direction
speed
MPH
gust
MPH
rain 1hr
in
rain 24hr
in
rain mn
in
humidity
%
barometer
mb
20260510040519 65 247 0.0 2.0 0.00 0.00 0.00 63 1025.2
20260510035616 66 247 0.0 1.0 0.00 0.00 0.00 59 1025.1
20260510034619 68 247 1.0 2.0 0.00 0.00 0.00 51 1024.8
20260510032716 70 270 2.0 2.0 0.00 0.00 0.00 47 1024.5
20260510031718 72 225 2.0 4.0 0.00 0.00 0.00 43 1024.5
20260510024819 73 180 0.0 0.0 0.00 0.00 0.00 42 1024.4
20260510022819 74 200 1.0 5.0 0.00 0.00 0.00 42 1024.4
20260510021819 74 222 3.0 4.0 0.00 0.00 0.00 44 1024.3
20260510020817 75 202 4.0 11.0 0.00 0.00 0.00 44 1024.3
20260510015908 75 202 2.0 8.0 0.00 0.00 0.00 44 1024.4
20260510014818 75 225 5.0 7.0 0.00 0.00 0.00 45 1024.4
20260510013819 75 225 4.0 7.0 0.00 0.00 0.00 45 1024.4
20260510012718 76 214 4.0 10.0 0.00 0.00 0.00 46 1024.5
20260510011721 76 200 3.0 11.0 0.00 0.00 0.00 46 1024.6
20260510010720 75 200 4.0 10.0 0.00 0.00 0.00 46 1024.7
20260510005818 75 205 3.0 9.0 0.00 0.00 0.00 48 1024.8
20260510003816 76 225 11.0 15.0 0.00 0.00 0.00 44 1024.7
20260510002824 76 223 11.0 15.0 0.00 0.00 0.00 45 1024.7
20260510001919 77 225 10.0 14.0 0.00 0.00 0.00 44 1024.8
20260510001017 75 222 7.0 10.0 0.00 0.00 0.00 47 1024.7
20260510000017 73 225 7.0 10.0 0.00 0.00 0.00 43 1024.8
20260509235019 71 225 6.0 7.0 0.00 0.00 0.00 44 1024.7
20260509234018 70 45 4.0 5.0 0.00 0.00 0.00 45 1024.8
20260509233116 71 45 6.0 7.0 0.00 0.00 0.00 46 1024.9
20260509232118 71 45 7.0 9.0 0.00 0.00 0.00 46 1025.1
20260509231118 72 45 6.0 7.0 0.00 0.00 0.00 45 1025.2
20260509230117 73 22 6.0 7.0 0.00 0.00 0.00 44 1025.4
20260509225217 72 45 8.0 9.0 0.00 0.00 0.00 44 1025.6
20260509225117 72 45 8.0 10.0 0.00 0.00 0.00 45 1025.6
20260509224118 72 39 8.0 9.0 0.00 0.00 0.00 46 1025.6
20260509222218 71 22 9.0 10.0 0.00 0.00 0.00 49 1026.0
20260509221317 72 29 5.0 6.0 0.00 0.00 0.00 46 1026.2
20260509215318 72 22 11.0 12.0 0.00 0.00 0.00 45 1026.7
20260509214317 72 24 10.0 11.0 0.00 0.00 0.00 44 1026.7
20260509212416 72 26 9.0 11.0 0.00 0.00 0.00 45 1026.9
20260509210420 69 45 4.0 5.0 0.00 0.00 0.00 53 1027.4
20260509205519 69 45 6.0 8.0 0.00 0.00 0.00 52 1027.6
20260509204616 70 22 7.0 8.0 0.00 0.00 0.00 51 1027.7
20260509203519 71 22 7.0 8.0 0.00 0.00 0.00 49 1027.9
20260509202617 70 22 4.0 6.0 0.00 0.00 0.00 48 1028.2
20260509201617 69 45 2.0 3.0 0.00 0.00 0.00 49 1028.3
20260509200618 69 45 3.0 4.0 0.00 0.00 0.00 52 1028.4
20260509195716 68 45 3.0 4.0 0.00 0.00 0.00 53 1028.6
20260509194718 68 45 3.0 4.0 0.00 0.00 0.00 52 1028.8
20260509193716 67 45 4.0 4.0 0.00 0.00 0.00 52 1029.0
20260509190723 65 45 3.0 5.0 0.00 0.00 0.00 58 1029.6
20260509185619 63 45 2.0 3.0 0.00 0.00 0.00 61 1029.8
20260509184618 62 45 5.0 6.0 0.00 0.00 0.00 65 1029.9
20260509183619 61 45 5.0 7.0 0.00 0.00 0.00 69 1030.0
20260509182618 61 45 5.0 6.0 0.00 0.00 0.00 71 1030.1
20260509181718 60 45 5.0 5.0 0.00 0.00 0.00 72 1030.5
20260509175720 61 45 5.0 5.0 0.00 0.00 0.00 68 1030.5
20260509174817 62 45 4.0 4.0 0.00 0.00 0.00 64 1030.6
20260509173818 62 45 4.0 5.0 0.00 0.00 0.00 64 1030.8
20260509172818 61 45 2.0 3.0 0.00 0.00 0.00 67 1030.8
20260509171819 59 45 2.0 3.0 0.00 0.00 0.00 67 1031.1
20260509164818 58 45 4.0 4.0 0.00 0.00 0.00 74 1031.4
20260509162818 56 45 4.0 4.0 0.00 0.00 0.00 74 1031.8
20260509161817 56 45 5.0 6.0 0.00 0.00 0.00 75 1031.8
20260509160916 56 45 6.0 6.0 0.00 0.00 0.00 73 1031.9
20260509155917 59 45 4.0 5.0 0.00 0.00 0.00 69 1032.0
20260509153918 59 67 1.0 1.0 0.00 0.00 0.00 68 1032.3
20260509152917 59 67 2.0 2.0 0.00 0.00 0.00 71 1032.3
20260509151919 57 67 0.0 0.0 0.00 0.00 0.00 73 1032.4
20260509151017 57 67 0.0 0.0 0.00 0.00 0.00 74 1032.5
20260509150116 57 67 0.0 0.0 0.00 0.00 0.00 74 1032.4
20260509145118 56 67 1.0 2.0 0.00 0.00 0.00 76 1032.4
20260509144117 55 67 1.0 1.0 0.00 0.00 0.00 79 1032.4
20260509143117 54 67 1.0 1.0 0.00 0.00 0.00 82 1032.6
20260509141118 51 67 0.0 0.0 0.00 0.00 0.00 89 1032.5
20260509141017 51 67 0.0 0.0 0.00 0.00 0.00 90 1032.5
20260509140017 50 67 0.0 0.0 0.00 0.00 0.00 91 1032.7
20260509135116 49 67 0.0 0.0 0.00 0.00 0.00 90 1032.5
20260509134117 49 67 1.0 2.0 0.00 0.00 0.00 89 1032.5
20260509133116 48 67 2.0 2.0 0.00 0.00 0.00 89 1032.5
20260509132117 48 67 1.0 2.0 0.00 0.00 0.00 90 1032.5
20260509130117 48 67 0.0 0.0 0.00 0.00 0.00 90 1032.6
20260509125118 48 67 0.0 1.0 0.00 0.00 0.00 90 1032.4
20260509123118 48 67 0.0 1.0 0.00 0.00 0.00 89 1032.2
20260509122217 48 67 0.0 1.0 0.00 0.00 0.00 89 1032.1
20260509121217 49 67 0.0 0.0 0.00 0.00 0.00 89 1032.1
20260509120218 49 67 0.0 0.0 0.00 0.00 0.00 89 1032.0
20260509113318 49 67 0.0 0.0 0.00 0.00 0.00 87 1032.2
20260509113216 49 67 0.0 0.0 0.00 0.00 0.00 87 1032.2
20260509112216 50 67 0.0 0.0 0.00 0.00 0.00 86 1032.2
20260509111219 50 67 0.0 0.0 0.00 0.00 0.00 85 1032.3
20260509110316 50 67 0.0 0.0 0.00 0.00 0.00 84 1032.2
20260509110217 50 67 0.0 0.0 0.00 0.00 0.00 84 1032.3
20260509105218 51 67 0.0 0.0 0.00 0.00 0.00 84 1032.3
20260509105118 51 67 0.0 0.0 0.00 0.00 0.00 84 1032.3
20260509105017 51 67 0.0 0.0 0.00 0.00 0.00 84 1032.3
20260509104018 51 67 1.0 2.0 0.00 0.00 0.00 84 1032.3
20260509103117 51 67 1.0 2.0 0.00 0.00 0.00 84 1032.2
20260509102117 51 67 1.0 2.0 0.00 0.00 0.00 83 1032.3
20260509101216 52 67 0.0 0.0 0.00 0.00 0.00 83 1032.3
20260509100218 52 67 0.0 0.0 0.00 0.00 0.00 82 1032.4
20260509095219 53 67 0.0 0.0 0.00 0.00 0.00 80 1032.4
20260509094317 53 67 1.0 2.0 0.00 0.00 0.00 80 1032.4
20260509093318 53 67 0.0 1.0 0.00 0.00 0.00 80 1032.4
20260509091416 54 360 0.0 0.0 0.00 0.00 0.00 79 1032.5
20260509090516 54 360 0.0 0.0 0.00 0.00 0.00 79 1032.5
20260509085518 55 360 0.0 0.0 0.00 0.00 0.00 79 1032.5
20260509084518 54 360 0.0 0.0 0.00 0.00 0.00 79 1032.7
20260509082618 55 360 0.0 0.0 0.00 0.00 0.00 78 1032.9
20260509081619 55 360 0.0 0.0 0.00 0.00 0.00 77 1032.9
20260509075717 55 360 0.0 0.0 0.00 0.00 0.00 77 1033.1
20260509074719 55 360 0.0 0.0 0.00 0.00 0.00 76 1032.9
20260509073718 56 360 0.0 0.0 0.00 0.00 0.00 75 1033.1
20260509071818 57 360 0.0 0.0 0.00 0.00 0.00 73 1032.9
20260509070818 57 360 0.0 0.0 0.00 0.00 0.00 72 1032.9
20260509064913 59 360 0.0 0.0 0.00 0.00 0.00 68 1032.9
20260509063913 59 360 0.0 0.0 0.00 0.00 0.00 67 1032.9
20260509062912 59 360 0.0 0.0 0.00 0.00 0.00 66 1032.9
20260509062010 59 360 0.0 0.0 0.00 0.00 0.00 67 1033.0
20260509060012 60 360 0.0 0.0 0.00 0.00 0.00 64 1032.9
20260509055110 60 360 0.0 0.0 0.00 0.00 0.00 64 1032.9
20260509053112 60 360 0.0 0.0 0.00 0.00 0.00 65 1032.9
20260509052113 60 360 0.0 0.0 0.00 0.00 0.00 66 1032.9
20260509051112 61 360 4.0 4.0 0.00 0.00 0.00 62 1032.9
20260509050211 62 327 2.0 4.0 0.00 0.00 0.00 59 1032.7
20260509045212 62 212 2.0 4.0 0.00 0.00 0.00 59 1032.7
20260509044213 62 217 3.0 5.0 0.00 0.00 0.00 58 1032.6
20260509044115 62 202 1.0 5.0 0.00 0.00 0.00 59 1032.7
20260509043211 62 214 2.0 5.0 0.00 0.00 0.00 59 1032.5
20260509042213 62 207 2.0 7.0 0.00 0.00 0.00 58 1032.4
20260509041212 62 206 2.0 7.0 0.00 0.00 0.00 58 1032.4